This is the latest recevied weather packets stored in our database for station/object KD2FGL-13. If no packets are shown the sender has not sent any weather packets the latest 10 day(s).
| Time | Temp. | Humidity | Pressure | Rain* | Wind** | Luminosity | Snow |
|---|---|---|---|---|---|---|---|
| 1777402532 | 21.67° C | 27% | 1021 hPa | 0 mm | - | - | - |
| 1777400101 | 20.56° C | 29% | 1021.4 hPa | 0 mm | - | - | - |
| 1777399698 | 21.11° C | 31% | 1021.5 hPa | 0 mm | - | - | - |
| 1777397267 | 21.67° C | 30% | 1021.9 hPa | 0 mm | - | - | - |
| 1777396965 | 21.67° C | 30% | 1021.8 hPa | 0 mm | - | - | - |
| 1777396659 | 21.67° C | 30% | 1021.9 hPa | 0 mm | - | - | - |
| 1777396355 | 21.67° C | 31% | 1022 hPa | 0 mm | - | - | - |
| 1777395443 | 21.11° C | 32% | 1022 hPa | 0 mm | - | - | - |
| 1777394531 | 21.11° C | 32% | 1022.2 hPa | 0 mm | - | - | - |
| 1777393923 | 21.11° C | 32% | 1022.5 hPa | 0 mm | - | - | - |
| 1777393620 | 21.11° C | 33% | 1022.4 hPa | 0 mm | - | - | - |
| 1777391491 | 20.56° C | 33% | 1022.7 hPa | 0 mm | - | - | - |
| 1777391188 | 21.11° C | 33% | 1022.7 hPa | 0 mm | - | - | - |
| 1777390579 | 21.11° C | 33% | 1022.9 hPa | 0 mm | - | - | - |
| 1777390275 | 21.11° C | 33% | 1022.8 hPa | 0 mm | - | - | - |
| 1777389971 | 21.11° C | 33% | 1022.7 hPa | 0 mm | - | - | - |
| 1777388452 | 21.11° C | 32% | 1022.9 hPa | 0 mm | - | - | - |
| 1777387845 | 21.11° C | 32% | 1023 hPa | 0 mm | - | - | - |
| 1777387237 | 21.11° C | 33% | 1023.1 hPa | 0 mm | - | - | - |
| 1777386933 | 21.11° C | 33% | 1023 hPa | 0 mm | - | - | - |
| 1777386324 | 21.11° C | 34% | 1023.1 hPa | 0 mm | - | - | - |
| 1777385717 | 20.56° C | 34% | 1023.2 hPa | 0 mm | - | - | - |
| 1777385413 | 20.56° C | 35% | 1023.3 hPa | 0 mm | - | - | - |
| 1777384500 | 20° C | 37% | 1023.5 hPa | 0 mm | - | - | - |
| 1777384197 | 19.44° C | 37% | 1023.4 hPa | 0 mm | - | - | - |
* Rain since midnight (hover to see other rain measurements)
** Current wind speed in m/s (hover to see current wind gust speed)